Location: Peach Mountain Observatory
(42.3967°N, 83.9367°W)
Time: 06:06:09
(UTC-05:00)

Vanguard 3 - All Passes

Search period start: 22 January 2020 00:00
Search period end: 01 February 2020 00:00
Orbit: 507 x 3263 km, 33.4° (Epoch: 22 January)

Date Brightness Start Highest point End Pass type
(mag) Time Alt. Az. Time Alt. Az. Time Alt. Az.
22 Jan - 00:31:22 10° W 00:41:13 29° SW 00:47:35 10° SSE visible
22 Jan - 16:28:51 10° SSW 16:44:09 30° SE 16:58:10 10° E daylight
22 Jan - 18:40:18 10° SW 18:58:58 51° SSE 19:12:57 10° E visible
22 Jan - 20:56:03 10° WSW 21:13:57 60° S 21:25:06 10° ESE visible
22 Jan - 23:13:35 10° W 23:27:16 43° SSW 23:35:26 10° SE visible
23 Jan - 01:33:05 10° WSW 01:37:55 14° SW 01:41:45 10° SSW night (unlit)
23 Jan - 15:16:54 10° S 15:28:33 20° SE 15:40:12 10° E daylight
23 Jan - 17:24:55 10° SW 17:42:41 43° SSE 17:57:52 10° E daylight
23 Jan - 19:38:57 10° WSW 19:57:59 59° S 20:11:10 10° E visible
23 Jan - 21:55:53 10° W 22:12:30 55° SSW 22:22:33 10° ESE visible
24 Jan - 00:14:02 10° W 00:24:34 28° SW 00:31:26 10° SSE visible
24 Jan - 16:10:51 10° SSW 16:26:36 33° SE 16:41:48 10° E daylight
24 Jan - 18:22:36 10° SW 18:41:38 55° SSE 18:56:38 10° E visible
24 Jan - 20:38:22 10° WSW 20:56:58 61° S 21:09:01 10° ESE visible
24 Jan - 22:56:00 10° W 23:10:30 42° SSW 23:19:22 10° SE visible
25 Jan - 01:16:22 10° WSW 01:21:11 14° SW 01:25:06 10° SSW night (unlit)
25 Jan - 14:58:32 10° S 15:11:00 23° SE 15:24:03 10° E daylight
25 Jan - 17:07:16 10° SW 17:25:11 47° SSE 17:41:23 10° E daylight
25 Jan - 19:21:20 10° WSW 19:40:47 61° S 19:54:55 10° E visible
25 Jan - 21:38:14 10° W 21:55:35 54° SSW 22:06:27 10° SE visible
25 Jan - 23:56:41 10° W 00:07:46 27° SW 00:15:12 10° SSE visible
26 Jan - 13:50:13 10° SSE 13:56:01 12° SE 14:02:07 10° ESE daylight
26 Jan - 15:53:09 10° SSW 16:09:01 36° SE 16:25:11 10° E daylight
26 Jan - 18:05:06 10° WSW 18:24:12 57° SSE 18:40:11 10° E visible
26 Jan - 20:20:46 10° W 20:39:51 61° S 20:52:50 10° ESE visible
26 Jan - 22:38:25 10° W 22:53:36 41° SSW 23:03:13 10° SE visible
27 Jan - 00:59:46 10° WSW 01:04:21 13° SW 01:08:12 10° SSW visible
27 Jan - 14:40:36 10° S 14:53:25 25° SE 15:07:33 10° E daylight
27 Jan - 16:49:50 10° SW 17:07:37 50° SSE 17:24:44 10° E daylight
27 Jan - 19:03:52 10° WSW 19:23:28 63° S 19:38:34 10° ESE visible
27 Jan - 21:20:36 10° W 21:38:32 53° SSW 21:50:16 10° SE visible
27 Jan - 23:39:19 10° W 23:50:50 26° SW 23:58:48 10° S visible
28 Jan - 13:30:58 10° SSE 13:38:32 14° SE 13:46:51 10° ESE daylight
28 Jan - 15:35:44 10° SSW 15:51:24 39° SSE 16:08:24 10° E daylight
28 Jan - 17:47:45 10° WSW 18:06:43 60° SSE 18:23:37 10° E visible
28 Jan - 20:03:15 10° W 20:22:38 61° S 20:36:31 10° ESE visible
28 Jan - 22:20:50 10° W 22:36:33 40° SSW 22:46:55 10° SSE visible
29 Jan - 00:43:23 10° WSW 00:47:24 12° SW 00:50:55 10° SW visible
29 Jan - 14:23:01 10° S 14:35:51 28° SE 14:50:46 10° E daylight
29 Jan - 16:32:37 10° SW 16:50:02 53° SSE 17:07:57 10° E daylight
29 Jan - 18:46:31 10° WSW 19:06:04 64° S 19:22:05 10° ESE visible
29 Jan - 21:03:03 10° W 21:21:21 52° SSW 21:33:56 10° SE visible
29 Jan - 23:21:59 10° W 23:33:46 24° SW 23:42:14 10° S visible
30 Jan - 13:12:39 10° SSE 13:21:03 16° SE 13:30:45 10° E daylight
30 Jan - 15:18:33 10° SSW 15:33:47 42° SSE 15:51:24 10° E daylight
30 Jan - 17:30:35 10° WSW 17:49:12 62° S 18:06:55 10° E daylight
30 Jan - 19:45:51 10° W 20:05:17 61° SSW 20:20:06 10° ESE visible
30 Jan - 22:03:19 10° W 22:19:22 38° SW 22:30:28 10° SSE visible
31 Jan - 00:27:33 10° WSW 00:30:21 11° SW 00:32:54 10° SW visible
31 Jan - 14:05:45 10° SSW 14:18:17 30° SE 14:33:45 10° E daylight
31 Jan - 16:15:34 10° SW 16:32:27 55° SSE 16:51:01 10° E daylight
31 Jan - 18:29:19 10° WSW 18:48:36 64° S 19:05:28 10° ESE visible
31 Jan - 20:45:35 10° W 21:04:03 50° SSW 21:17:29 10° SE visible
31 Jan - 23:04:44 10° W 23:16:35 23° SW 23:25:28 10° S visible
